GFSNGP_prec_snow_135.txt.gz
Snowfall_Accumulation
0.2 0.8 6.1 4.1 0.7 0.6 1.7 0.8 1.6 5.6 5.6 7.5 12.5 13.4 15.4 12.0 10.2 8.5 7.2 5.2 6.3 7.3 5.5 6.7 7.6 5.1 3.7 3.5 1.5 0.0 0.0 0.0 0.0 0.0 0.0 0.0 0.0 0.0 0.0 0.0 0.0 0.0 0.0 0.0
0.0 0.2 2.6 2.8 0.5 0.3 0.6 1.3 2.3 3.7 3.1 5.8 4.1 0.7 0.8 5.0 6.8 5.7 5.5 4.8 1.6 1.4 2.1 0.6 0.7 0.8 1.4 0.9 0.5 0.0 0.0 0.0 0.0 0.0 0.0 0.0 0.0 0.0 0.0 0.0 0.0 0.0 0.0 0.0
0.4 0.0 3.2 5.9 7.3 4.9 2.4 2.0 2.3 2.8 3.9 5.9 1.8 0.2 0.1 0.0 0.6 1.4 2.0 1.8 1.3 0.5 0.4 0.3 0.1 0.0 0.0 0.1 0.0 0.0 0.0 0.0 0.0 0.0 0.0 0.0 0.0 0.0 0.0 0.0 0.0 0.3 0.0 0.0
2.1 2.5 6.5 7.3 4.8 5.9 8.6 5.6 6.7 6.3 6.4 4.5 2.0 0.6 0.0 0.0 0.0 0.1 0.1 0.2 0.1 0.4 0.2 0.1 0.0 0.0 0.0 0.0 0.0 0.0 0.0 0.0 0.0 0.0 0.0 0.0 0.0 0.0 0.0 0.0 0.0 0.0 0.0 0.0
4.1 4.0 4.5 1.4 0.0 0.8 2.1 2.5 1.9 3.2 2.8 1.3 0.8 0.2 0.0 0.0 0.0 0.1 0.1 0.1 0.1 0.1 0.1 0.1 0.1 0.0 0.0 0.0 0.0 0.0 0.0 0.0 0.0 0.0 0.0 0.0 0.0 0.0 0.0 0.0 0.0 0.0 0.0 0.0
2.6 3.1 2.8 1.8 0.0 0.0 0.7 4.8 2.5 0.2 1.0 0.5 0.0 0.4 0.3 0.2 0.0 0.0 0.0 0.0 0.0 0.0 0.0 3.8 4.0 4.8 6.4 0.0 0.0 0.0 0.0 0.0 0.0 0.0 0.0 0.0 0.0 0.0 0.0 0.0 0.0 0.0 0.0 0.0
1.1 2.9 1.7 0.0 0.0 0.0 3.9 7.8 0.5 0.3 1.4 0.1 0.1 0.3 0.4 0.1 0.0 0.0 0.1 0.4 0.1 0.1 0.5 1.8 3.5 5.5 8.6 10.1 8.7 4.2 3.5 2.4 0.0 0.0 0.0 0.0 0.0 0.0 0.0 0.0 0.0 0.0 0.0 0.0
3.7 3.6 3.2 0.0 0.0 0.8 2.7 0.6 0.2 0.1 0.2 0.2 0.2 0.2 0.1 0.0 0.0 0.4 0.6 1.3 1.1 0.7 0.6 1.7 2.7 6.3 8.6 9.7 10.7 11.0 8.0 8.2 3.0 0.0 1.5 0.0 0.0 0.0 0.0 0.0 0.0 0.0 0.1 0.1
1.9 4.0 1.1 0.3 0.8 1.2 0.6 0.3 0.3 0.0 0.1 0.1 0.0 0.1 0.0 0.0 0.0 1.5 3.4 4.1 2.2 2.0 1.4 1.1 1.9 3.3 5.8 8.0 8.7 10.5 7.3 9.4 4.6 6.0 2.0 2.2 0.1 0.1 0.0 0.0 0.0 0.0 0.0 0.1
1.9 1.7 0.4 0.2 0.2 0.2 0.3 0.2 0.0 0.2 0.1 0.0 0.0 0.0 0.0 0.0 0.0 0.9 3.9 3.5 2.8 2.6 2.2 1.6 1.9 1.6 1.9 2.2 3.0 4.8 5.8 6.3 8.7 6.0 8.3 9.6 3.6 5.5 1.9 2.5 0.6 0.7 0.1 0.1
6.8 4.2 2.2 0.9 1.1 1.8 0.5 0.1 0.0 0.0 0.0 0.0 0.0 0.0 0.0 0.0 0.0 0.1 1.8 2.3 3.2 2.5 2.4 2.9 2.4 1.3 1.0 0.7 1.2 1.8 2.4 2.5 3.3 5.3 7.6 8.6 12.8 15.9 16.7 17.0 5.4 6.2 6.8 3.7
14.1 9.5 5.5 3.8 3.2 2.3 1.3 0.2 0.1 0.0 0.0 0.0 0.0 0.0 0.0 0.0 0.1 0.1 0.2 0.2 0.6 1.0 0.9 0.7 0.7 0.5 0.4 0.4 0.2 0.1 1.0 1.3 2.1 2.5 3.8 5.4 8.0 10.7 13.8 18.2 20.0 24.3 19.5 23.3
6.5 8.7 6.8 5.2 3.6 2.7 2.1 1.5 0.3 0.0 0.0 0.1 0.2 0.1 0.0 0.0 0.0 0.2 0.1 0.2 0.4 0.5 0.5 0.5 0.3 0.2 0.2 0.2 0.1 0.2 0.4 0.4 2.4 2.9 3.6 5.1 5.1 6.8 9.5 20.8 24.5 28.8 29.8 29.6
3.0 3.6 4.0 4.0 3.5 2.2 1.3 1.4 0.7 0.4 0.2 0.4 0.3 0.2 0.1 0.0 0.0 0.0 0.2 0.3 0.2 0.2 0.3 0.2 0.0 0.7 0.7 0.3 0.2 0.0 0.1 4.3 10.1 14.3 14.9 15.3 15.6 18.2 18.4 18.8 18.4 19.6 19.4 18.3
1.4 0.9 1.6 1.6 1.5 1.3 0.9 0.7 0.5 0.4 0.6 1.4 1.4 1.0 0.2 0.3 0.1 0.4 0.5 0.2 0.1 0.2 0.4 0.3 0.5 1.0 1.9 3.3 3.5 5.4 7.1 8.9 9.6 9.4 8.6 7.1 6.6 7.8 7.9 8.1 9.3 9.9 8.9 7.8
0.5 0.1 0.3 0.8 1.0 0.8 0.9 0.7 0.4 1.8 1.2 1.0 0.8 0.4 0.1 0.2 0.4 0.4 0.5 0.4 0.4 1.2 1.2 1.2 2.5 5.4 5.6 5.2 5.6 5.9 6.6 6.7 5.8 5.6 5.8 5.1 4.3 3.7 3.8 3.1 3.2 3.4 4.0 4.9
0.2 0.2 0.1 0.2 0.2 0.1 0.2 0.3 0.5 0.9 0.0 0.0 0.1 0.0 0.0 0.1 0.1 0.4 1.1 1.2 1.3 2.5 3.8 4.4 8.2 8.7 8.1 7.9 7.0 7.3 6.6 6.3 4.5 3.7 3.1 2.8 2.2 2.0 1.8 2.1 1.8 1.4 1.3 0.8
1.0 0.1 0.0 0.1 1.1 0.9 0.7 0.6 0.0 0.0 0.1 0.1 0.2 0.4 0.4 0.4 1.0 2.4 2.5 2.0 2.4 4.7 6.8 8.8 8.6 7.7 7.1 7.0 4.7 4.5 3.7 3.1 2.5 2.5 1.8 1.5 1.2 1.0 0.9 1.1 0.8 1.1 1.5 0.8
0.4 1.7 2.3 1.1 0.6 0.2 0.1 0.3 0.2 0.3 1.6 2.0 2.8 4.0 5.6 6.7 7.6 9.3 9.4 8.3 8.6 8.1 11.9 9.8 7.6 5.4 4.9 4.5 2.7 1.9 2.2 2.0 1.4 1.4 1.2 0.6 0.9 0.6 1.6 1.5 1.6 1.3 1.3 1.4
0.9 1.0 1.4 2.3 3.0 2.8 3.3 5.2 5.4 7.0 8.6 7.6 7.6 8.7 9.9 12.0 11.8 11.6 9.8 9.4 9.7 9.6 8.0 6.0 4.0 2.8 2.1 1.5 1.0 1.2 1.0 1.0 1.1 0.7 1.2 0.7 1.3 1.3 1.3 2.2 2.7 2.0 1.4 1.4
3.0 4.9 5.1 6.6 8.5 10.0 10.6 11.3 9.5 10.1 12.0 10.2 8.4 9.4 9.4 10.3 9.2 7.5 6.7 5.2 7.7 5.4 3.3 2.3 1.5 1.0 0.6 0.6 0.4 0.7 1.1 1.2 1.6 1.3 2.1 2.6 2.8 2.8 2.3 1.2 1.8 2.0 1.7 1.5
6.3 6.3 7.0 6.6 5.5 7.7 8.8 8.4 6.5 7.1 7.4 7.4 7.2 7.1 6.3 7.2 6.2 5.2 4.3 3.7 3.8 1.9 1.2 0.7 0.6 0.2 0.2 0.2 0.7 1.0 1.3 1.7 1.7 1.9 1.9 2.4 2.6 2.3 1.9 1.3 1.2 1.2 1.5 1.2
6.7 5.9 5.7 5.4 4.4 5.4 5.8 5.4 5.7 4.6 5.0 5.3 5.1 5.3 4.6 4.4 3.8 3.2 2.9 1.4 0.3 0.0 0.2 0.3 0.2 0.1 0.4 0.6 0.8 1.4 1.7 2.0 2.1 2.1 1.9 1.9 1.8 1.6 1.3 1.0 0.9 0.9 1.1 1.0
5.7 5.4 5.5 5.2 3.9 2.6 3.7 5.6 4.2 3.9 3.4 3.5 3.4 3.6 2.9 2.5 1.5 0.2 0.3 0.0 0.0 0.1 0.3 0.5 0.6 0.5 0.7 1.6 1.7 1.3 1.5 1.4 1.2 1.3 1.1 0.7 1.3 1.0 1.4 1.1 1.0 0.9 0.9 0.8
5.6 5.7 5.4 4.8 3.7 4.6 4.1 4.1 2.8 2.8 2.4 2.2 1.7 0.7 0.1 0.1 0.5 0.4 0.2 0.1 0.1 0.7 1.1 0.9 0.9 0.6 1.2 1.3 1.4 1.1 1.3 1.4 1.1 1.2 1.3 1.4 1.5 1.4 1.1 1.3 1.1 0.9 1.1 0.9
5.2 4.9 4.9 4.4 3.9 3.6 3.1 2.5 2.2 1.7 1.0 0.6 0.6 0.4 0.3 0.3 0.2 0.2 0.3 0.2 0.5 0.7 1.2 1.4 0.9 0.9 1.1 1.3 1.4 1.4 1.4 1.3 1.2 1.4 1.4 1.3 1.2 1.2 1.3 1.0 1.0 1.1 1.1 1.2
4.6 4.1 3.3 2.9 2.7 2.0 1.2 0.4 0.7 0.6 0.4 0.7 0.9 0.5 0.6 0.5 0.3 0.5 0.5 1.0 1.1 1.2 1.3 1.3 1.3 1.2 1.4 1.4 1.4 1.1 1.2 1.1 0.8 1.1 1.3 1.4 1.3 1.2 1.1 1.2 1.3 1.3 1.2 1.5

GFSNGP_prec_snow_138.txt.gz
Snowfall_Accumulation
0.2 0.8 6.1 4.1 0.7 0.6 1.7 0.8 1.8 6.0 5.6 7.5 12.5 13.4 15.4 12.0 10.2 8.5 7.2 5.2 6.3 7.3 5.5 6.7 7.6 5.1 5.3 5.4 4.0 4.1 2.6 1.8 1.8 0.0 0.0 0.0 0.0 0.0 0.0 0.0 0.0 0.0 0.0 0.0
0.0 0.2 2.6 2.8 0.5 0.3 0.6 1.3 2.3 3.7 3.2 5.8 4.1 0.7 0.8 5.0 6.8 5.7 5.5 4.8 1.6 1.4 2.1 0.6 0.7 0.8 1.4 0.9 1.1 0.8 1.4 1.1 1.8 0.0 0.0 0.0 0.0 0.0 0.0 0.0 0.0 0.0 0.0 0.0
0.4 0.0 3.2 5.9 7.3 4.9 2.4 2.0 2.3 2.8 3.9 5.9 1.8 0.2 0.1 0.0 0.6 1.4 2.0 1.8 1.3 0.5 0.4 0.3 0.1 0.0 0.0 0.1 0.0 0.0 0.2 0.4 0.0 0.0 0.0 0.0 0.0 0.0 0.0 0.0 0.0 0.3 0.0 0.0
2.2 2.5 6.5 7.3 4.8 5.9 8.6 5.6 6.7 6.3 6.4 4.5 2.0 0.6 0.0 0.0 0.0 0.1 0.1 0.2 0.1 0.4 0.2 0.1 0.0 0.0 0.0 0.0 0.0 0.0 0.0 0.0 0.0 0.2 0.0 0.0 0.0 0.0 0.0 0.0 0.0 0.0 0.0 0.0
4.1 4.1 4.5 1.4 0.0 0.8 2.1 2.6 1.9 3.2 2.8 1.3 0.8 0.2 0.0 0.0 0.0 0.1 0.1 0.1 0.1 0.1 0.1 0.1 0.1 0.0 0.0 0.0 0.0 0.0 0.0 0.0 0.0 0.0 0.0 0.0 0.0 0.0 0.0 0.0 0.0 0.0 0.0 0.0
2.6 3.1 3.1 1.8 0.0 0.0 0.7 5.0 2.5 0.2 1.0 0.5 0.0 0.6 0.3 0.2 0.0 0.0 0.0 0.0 0.0 0.0 0.0 3.8 4.0 4.8 6.4 0.0 0.0 0.0 0.0 0.1 0.0 0.0 0.0 0.0 0.0 0.0 0.0 0.0 0.0 0.0 0.0 0.0
1.1 2.9 1.7 0.0 0.0 0.0 3.9 7.9 0.5 0.3 1.4 0.1 0.1 0.3 0.4 0.1 0.0 0.0 0.1 0.4 0.1 0.1 0.5 1.8 3.5 5.5 8.6 10.1 8.8 4.2 3.5 2.4 0.0 0.0 0.0 0.0 0.0 0.0 0.0 0.0 0.0 0.0 0.0 0.0
3.7 3.6 3.3 0.0 0.0 0.8 2.7 0.6 0.2 0.1 0.2 0.2 0.2 0.2 0.1 0.0 0.0 0.4 0.6 1.3 1.1 0.7 0.6 1.7 2.7 6.3 8.6 9.7 10.7 11.0 8.0 8.2 3.0 0.0 1.6 0.0 0.0 0.0 0.0 0.0 0.0 0.0 0.1 0.1
1.9 4.0 1.1 0.3 0.8 1.2 0.6 0.3 0.3 0.0 0.1 0.1 0.0 0.1 0.0 0.0 0.0 1.5 3.4 4.1 2.2 2.0 1.4 1.1 1.9 3.3 5.8 8.0 8.7 10.5 7.3 9.4 4.6 6.0 2.0 2.2 0.1 0.1 0.0 0.0 0.0 0.0 0.0 0.1
1.9 1.7 0.4 0.2 0.2 0.2 0.3 0.2 0.0 0.2 0.1 0.0 0.0 0.0 0.0 0.0 0.0 0.9 3.9 3.5 2.8 2.6 2.2 1.6 1.9 1.6 1.9 2.2 3.0 4.8 5.8 6.3 8.7 6.0 8.3 9.6 3.6 5.5 1.9 2.5 0.6 0.7 0.1 0.2
6.8 4.2 2.2 0.9 1.1 1.8 0.5 0.1 0.0 0.0 0.0 0.0 0.0 0.0 0.0 0.0 0.0 0.1 1.8 2.3 3.2 2.5 2.4 2.9 2.4 1.3 1.0 0.7 1.2 1.8 2.4 2.5 3.3 5.3 7.6 8.6 12.8 16.0 16.7 17.1 5.5 6.3 7.1 3.9
14.1 9.5 5.5 3.8 3.2 2.3 1.3 0.2 0.1 0.0 0.0 0.0 0.0 0.0 0.0 0.0 0.1 0.1 0.2 0.2 0.6 1.0 0.9 0.7 0.7 0.5 0.4 0.4 0.3 0.2 1.0 1.3 2.2 2.5 3.8 5.4 8.0 10.7 13.9 18.3 20.0 24.3 19.5 23.4
6.5 8.7 6.8 5.2 3.6 2.7 2.1 1.5 0.3 0.0 0.0 0.1 0.2 0.1 0.0 0.0 0.0 0.2 0.1 0.2 0.4 0.5 0.5 0.5 0.3 0.2 0.2 0.2 0.1 0.2 0.4 0.4 2.5 2.9 3.6 5.1 5.1 6.8 9.5 20.8 24.6 28.8 29.8 29.6
3.0 3.6 4.0 4.0 3.5 2.2 1.3 1.4 0.7 0.4 0.2 0.4 0.3 0.2 0.1 0.0 0.0 0.0 0.2 0.3 0.2 0.2 0.3 0.2 0.0 0.7 0.7 0.3 0.2 0.0 0.1 4.3 10.2 14.3 14.9 15.3 15.6 18.2 18.4 18.8 18.4 19.6 19.4 18.3
1.4 0.9 1.6 1.6 1.5 1.3 0.9 0.7 0.5 0.4 0.6 1.4 1.4 1.0 0.2 0.3 0.1 0.4 0.5 0.2 0.1 0.2 0.4 0.3 0.5 1.0 1.9 3.3 3.6 5.4 7.2 8.9 9.6 9.4 8.6 7.1 6.6 7.8 7.9 8.1 9.3 9.9 8.9 7.8
0.5 0.1 0.3 0.8 1.0 0.8 0.9 0.7 0.4 1.8 1.2 1.0 0.8 0.4 0.1 0.2 0.4 0.4 0.5 0.4 0.4 1.2 1.2 1.2 2.5 5.4 5.6 5.2 5.7 5.9 6.6 6.7 5.8 5.6 5.8 5.1 4.3 3.7 3.8 3.1 3.2 3.4 4.0 4.9
0.2 0.2 0.1 0.2 0.2 0.1 0.2 0.3 0.5 0.9 0.0 0.0 0.1 0.0 0.0 0.1 0.1 0.4 1.1 1.2 1.3 2.5 3.8 4.4 8.2 8.7 8.1 7.9 7.0 7.3 6.6 6.3 4.5 3.7 3.1 2.8 2.2 2.0 1.8 2.1 1.8 1.4 1.3 0.8
1.0 0.1 0.0 0.1 1.1 0.9 0.7 0.6 0.0 0.0 0.1 0.1 0.2 0.4 0.4 0.4 1.0 2.4 2.5 2.0 2.4 4.7 6.8 8.8 8.6 7.7 7.1 7.0 4.7 4.5 3.7 3.1 2.5 2.5 1.8 1.5 1.2 1.0 0.9 1.1 0.8 1.1 1.5 0.8
0.4 1.7 2.3 1.1 0.6 0.2 0.1 0.3 0.2 0.3 1.6 2.0 2.8 4.0 5.6 6.7 7.6 9.3 9.4 8.3 8.6 8.1 11.9 9.8 7.6 5.4 4.9 4.5 2.7 1.9 2.2 2.0 1.4 1.4 1.2 0.6 0.9 0.6 1.6 1.5 1.6 1.3 1.3 1.4
0.9 1.0 1.4 2.3 3.0 2.8 3.3 5.2 5.4 7.0 8.6 7.6 7.6 8.7 9.9 12.0 11.8 11.6 9.8 9.4 9.7 9.6 8.0 6.0 4.0 2.8 2.1 1.5 1.0 1.2 1.0 1.0 1.1 0.7 1.2 0.7 1.3 1.3 1.3 2.2 2.7 2.0 1.4 1.4
3.0 4.9 5.1 6.6 8.5 10.0 10.6 11.3 9.5 10.1 12.0 10.2 8.4 9.4 9.4 10.3 9.2 7.5 6.7 5.2 7.7 5.4 3.3 2.3 1.5 1.0 0.6 0.6 0.4 0.7 1.1 1.2 1.6 1.3 2.1 2.6 2.8 2.8 2.3 1.2 1.8 2.0 1.7 1.5
6.3 6.3 7.0 6.6 5.5 7.7 8.8 8.4 6.5 7.1 7.4 7.4 7.2 7.1 6.3 7.2 6.2 5.2 4.3 3.7 3.8 1.9 1.2 0.7 0.6 0.2 0.2 0.2 0.7 1.0 1.3 1.7 1.7 1.9 1.9 2.4 2.6 2.3 1.9 1.3 1.2 1.2 1.5 1.2
6.7 5.9 5.7 5.4 4.4 5.4 5.8 5.4 5.7 4.6 5.0 5.3 5.1 5.3 4.6 4.4 3.8 3.2 2.9 1.4 0.3 0.0 0.2 0.3 0.2 0.1 0.4 0.6 0.8 1.4 1.7 2.0 2.1 2.1 1.9 1.9 1.8 1.6 1.3 1.0 0.9 0.9 1.1 1.0
5.7 5.4 5.5 5.2 3.9 2.6 3.7 5.6 4.2 3.9 3.4 3.5 3.4 3.6 2.9 2.5 1.5 0.2 0.3 0.0 0.0 0.1 0.3 0.5 0.6 0.5 0.7 1.6 1.7 1.3 1.5 1.4 1.2 1.3 1.1 0.7 1.3 1.0 1.4 1.1 1.0 0.9 0.9 0.8
5.6 5.7 5.4 4.8 3.7 4.6 4.1 4.1 2.8 2.8 2.4 2.2 1.7 0.7 0.1 0.1 0.5 0.4 0.2 0.1 0.1 0.7 1.1 0.9 0.9 0.6 1.2 1.3 1.4 1.1 1.3 1.4 1.1 1.2 1.3 1.4 1.5 1.4 1.1 1.3 1.1 0.9 1.1 0.9
5.2 4.9 4.9 4.4 3.9 3.6 3.1 2.5 2.2 1.7 1.0 0.6 0.6 0.4 0.3 0.3 0.2 0.2 0.3 0.2 0.5 0.7 1.2 1.4 0.9 0.9 1.1 1.3 1.4 1.4 1.4 1.3 1.3 1.4 1.4 1.3 1.2 1.2 1.3 1.0 1.0 1.1 1.1 1.2
4.6 4.1 3.3 2.9 2.7 2.0 1.2 0.4 0.7 0.6 0.4 0.7 0.9 0.5 0.6 0.5 0.3 0.5 0.5 1.1 1.1 1.2 1.3 1.3 1.4 1.2 1.4 1.4 1.4 1.1 1.2 1.1 0.8 1.1 1.3 1.4 1.3 1.2 1.1 1.2 1.3 1.3 1.2 1.5

GFSNGP_prec_snow_141.txt.gz
Snowfall_Accumulation
0.2 0.8 6.1 4.1 0.7 0.6 1.7 0.8 1.8 6.0 5.6 7.5 12.5 13.4 15.4 12.0 10.2 8.5 7.2 5.2 6.3 7.3 5.5 6.7 7.6 5.1 5.3 5.4 4.0 5.6 5.8 4.5 3.7 2.9 2.4 0.8 0.0 0.0 0.0 0.0 0.0 0.0 0.0 0.0
0.0 0.2 2.6 2.8 0.5 0.3 0.6 1.3 2.3 3.7 3.2 5.8 4.1 0.7 0.8 5.0 6.8 5.7 5.5 4.8 1.6 1.4 2.1 0.6 0.7 0.8 1.4 0.9 1.1 0.8 1.8 1.6 2.7 0.8 1.2 1.4 0.0 0.0 0.0 0.0 0.0 0.0 0.0 0.0
0.4 0.0 3.2 5.9 7.3 4.9 2.4 2.0 2.3 2.8 3.9 5.9 1.8 0.2 0.1 0.0 0.6 1.4 2.0 1.8 1.3 0.5 0.4 0.3 0.1 0.0 0.0 0.1 0.0 0.0 0.2 0.4 0.1 0.0 0.0 0.0 0.6 0.8 0.0 0.0 0.0 3.2 2.7 2.3
2.2 2.5 6.5 7.3 4.8 5.9 8.6 5.6 6.7 6.3 6.4 4.5 2.0 0.6 0.0 0.0 0.0 0.1 0.1 0.2 0.1 0.4 0.2 0.1 0.0 0.0 0.0 0.0 0.0 0.0 0.0 0.0 0.0 0.2 0.0 0.0 0.0 0.0 0.0 0.0 0.0 0.0 0.6 0.0
4.4 4.1 4.5 1.4 0.0 0.8 2.1 2.6 1.9 3.2 2.8 1.3 0.8 0.2 0.0 0.0 0.0 0.1 0.1 0.1 0.1 0.1 0.1 0.1 0.1 0.0 0.0 0.0 0.0 0.0 0.1 0.1 0.0 0.0 0.0 0.0 0.0 0.0 0.0 0.0 0.0 0.0 0.0 0.0
2.6 3.1 3.2 1.8 0.0 0.0 0.7 5.0 2.5 0.2 1.0 0.5 0.0 0.7 0.3 0.2 0.0 0.0 0.0 0.0 0.0 0.0 0.0 3.8 4.0 4.8 6.4 0.0 0.0 0.1 0.1 0.1 0.0 0.0 0.0 0.0 0.0 0.0 0.0 0.0 0.0 0.0 0.0 0.0
1.1 2.9 1.7 0.0 0.0 0.0 3.9 7.9 0.5 0.3 1.4 0.1 0.1 0.3 0.4 0.1 0.0 0.0 0.1 0.4 0.1 0.1 0.5 1.8 3.5 5.5 8.6 10.2 8.9 4.3 3.5 2.4 0.0 0.0 0.0 0.0 0.0 0.0 0.0 0.0 0.0 0.0 0.0 0.0
3.7 3.6 3.3 0.0 0.0 0.8 2.7 0.6 0.2 0.1 0.2 0.2 0.2 0.2 0.1 0.0 0.0 0.4 0.6 1.3 1.1 0.7 0.6 1.7 2.7 6.3 8.6 9.8 10.7 11.0 8.0 8.2 3.0 0.0 1.6 0.1 0.0 0.0 0.0 0.0 0.0 0.0 0.1 0.1
1.9 4.0 1.1 0.3 0.8 1.2 0.6 0.3 0.3 0.0 0.1 0.1 0.0 0.1 0.0 0.0 0.0 1.5 3.4 4.1 2.2 2.0 1.4 1.1 1.9 3.3 5.8 8.0 8.7 10.5 7.3 9.4 4.6 6.0 2.0 2.2 0.1 0.1 0.0 0.0 0.0 0.0 0.0 0.1
1.9 1.7 0.4 0.2 0.2 0.2 0.3 0.2 0.0 0.2 0.1 0.0 0.0 0.0 0.0 0.0 0.0 0.9 3.9 3.5 2.8 2.6 2.2 1.6 1.9 1.6 1.9 2.2 3.0 4.8 5.8 6.3 8.7 6.0 8.3 9.6 3.7 5.5 1.9 2.5 0.6 0.7 0.1 0.2
6.8 4.2 2.2 0.9 1.1 1.8 0.5 0.1 0.0 0.0 0.0 0.0 0.0 0.0 0.0 0.0 0.0 0.1 1.8 2.3 3.2 2.5 2.4 2.9 2.4 1.3 1.0 0.7 1.2 1.8 2.4 2.5 3.3 5.3 7.6 8.6 12.8 16.2 16.7 17.1 5.5 6.3 7.2 4.0
14.1 9.5 5.5 3.8 3.2 2.3 1.3 0.2 0.1 0.0 0.0 0.0 0.0 0.0 0.0 0.0 0.1 0.1 0.2 0.2 0.6 1.0 0.9 0.7 0.7 0.5 0.4 0.4 0.4 0.2 1.0 1.3 2.2 2.5 3.8 5.4 8.0 10.7 13.9 18.4 20.0 24.3 19.5 23.4
6.5 8.7 6.8 5.2 3.6 2.7 2.1 1.5 0.3 0.0 0.0 0.1 0.2 0.1 0.0 0.0 0.0 0.2 0.1 0.2 0.4 0.5 0.5 0.5 0.3 0.2 0.2 0.2 0.2 0.2 0.4 0.4 2.5 2.9 3.6 5.1 5.1 6.8 9.5 20.8 24.6 28.8 29.8 29.6
3.0 3.6 4.0 4.0 3.5 2.2 1.3 1.4 0.7 0.4 0.2 0.4 0.3 0.2 0.1 0.0 0.0 0.0 0.2 0.3 0.2 0.2 0.3 0.2 0.0 0.7 0.7 0.3 0.2 0.0 0.1 4.3 10.2 14.3 14.9 15.3 15.6 18.2 18.4 18.8 18.4 19.6 19.4 18.3
1.4 0.9 1.6 1.6 1.5 1.3 0.9 0.7 0.5 0.4 0.6 1.4 1.4 1.0 0.2 0.3 0.1 0.4 0.5 0.2 0.1 0.2 0.4 0.3 0.5 1.0 1.9 3.3 3.6 5.4 7.2 8.9 9.6 9.4 8.6 7.1 6.6 7.8 7.9 8.1 9.3 9.9 8.9 7.8
0.5 0.1 0.3 0.8 1.0 0.8 0.9 0.7 0.4 1.8 1.2 1.0 0.8 0.4 0.1 0.2 0.4 0.4 0.5 0.4 0.4 1.2 1.2 1.2 2.5 5.4 5.6 5.2 5.7 5.9 6.6 6.7 5.8 5.6 5.8 5.1 4.3 3.7 3.8 3.1 3.2 3.4 4.0 4.9
0.2 0.2 0.1 0.2 0.2 0.1 0.2 0.3 0.5 0.9 0.0 0.0 0.1 0.0 0.0 0.1 0.1 0.4 1.1 1.2 1.3 2.5 3.8 4.4 8.2 8.7 8.1 7.9 7.0 7.3 6.6 6.3 4.5 3.7 3.1 2.8 2.2 2.0 1.8 2.1 1.8 1.4 1.3 0.8
1.0 0.1 0.0 0.1 1.1 0.9 0.7 0.6 0.0 0.0 0.1 0.1 0.2 0.4 0.4 0.4 1.0 2.4 2.5 2.0 2.4 4.7 6.8 8.8 8.6 7.7 7.1 7.0 4.7 4.5 3.7 3.1 2.5 2.5 1.8 1.5 1.2 1.0 0.9 1.1 0.8 1.1 1.5 0.8
0.4 1.7 2.3 1.1 0.6 0.2 0.1 0.3 0.2 0.3 1.6 2.0 2.8 4.0 5.6 6.7 7.6 9.3 9.4 8.3 8.6 8.1 11.9 9.8 7.6 5.4 4.9 4.5 2.7 1.9 2.2 2.0 1.4 1.4 1.2 0.6 0.9 0.6 1.6 1.5 1.6 1.3 1.3 1.4
0.9 1.0 1.4 2.3 3.0 2.8 3.3 5.2 5.4 7.0 8.6 7.6 7.6 8.7 9.9 12.0 11.8 11.6 9.8 9.4 9.7 9.6 8.0 6.0 4.0 2.8 2.1 1.5 1.0 1.2 1.0 1.0 1.1 0.7 1.2 0.7 1.3 1.3 1.3 2.2 2.7 2.0 1.4 1.4
3.0 4.9 5.1 6.6 8.5 10.0 10.6 11.3 9.5 10.1 12.0 10.2 8.4 9.4 9.4 10.3 9.2 7.5 6.7 5.2 7.7 5.4 3.3 2.3 1.5 1.0 0.6 0.6 0.4 0.7 1.1 1.2 1.6 1.3 2.1 2.6 2.8 2.8 2.3 1.2 1.8 2.0 1.7 1.5
6.3 6.3 7.0 6.6 5.5 7.7 8.8 8.4 6.5 7.1 7.4 7.4 7.2 7.1 6.3 7.2 6.2 5.2 4.3 3.7 3.8 1.9 1.2 0.7 0.6 0.2 0.2 0.2 0.7 1.0 1.3 1.7 1.7 1.9 1.9 2.4 2.6 2.3 1.9 1.3 1.2 1.2 1.5 1.2
6.7 5.9 5.7 5.4 4.4 5.4 5.8 5.4 5.7 4.6 5.0 5.3 5.1 5.3 4.6 4.4 3.8 3.2 2.9 1.4 0.3 0.0 0.2 0.3 0.2 0.1 0.4 0.6 0.8 1.4 1.7 2.0 2.1 2.1 1.9 1.9 1.8 1.6 1.3 1.0 0.9 0.9 1.1 1.0
5.7 5.4 5.5 5.2 3.9 2.6 3.7 5.6 4.2 3.9 3.4 3.5 3.4 3.6 2.9 2.5 1.5 0.2 0.3 0.0 0.0 0.1 0.3 0.5 0.6 0.5 0.7 1.6 1.7 1.3 1.5 1.4 1.2 1.3 1.1 0.7 1.3 1.0 1.4 1.1 1.0 0.9 0.9 0.8
5.6 5.7 5.4 4.8 3.7 4.6 4.1 4.1 2.8 2.8 2.4 2.2 1.7 0.7 0.1 0.1 0.5 0.4 0.2 0.1 0.1 0.7 1.1 0.9 0.9 0.6 1.2 1.3 1.4 1.1 1.3 1.4 1.1 1.2 1.3 1.4 1.5 1.4 1.1 1.3 1.1 0.9 1.1 0.9
5.2 4.9 4.9 4.4 3.9 3.6 3.1 2.5 2.2 1.7 1.0 0.6 0.6 0.4 0.3 0.3 0.2 0.2 0.3 0.2 0.5 0.7 1.2 1.4 0.9 0.9 1.1 1.3 1.4 1.4 1.4 1.3 1.3 1.4 1.4 1.3 1.2 1.2 1.3 1.0 1.0 1.1 1.1 1.2
4.6 4.1 3.3 2.9 2.7 2.0 1.2 0.4 0.7 0.6 0.4 0.7 0.9 0.5 0.6 0.5 0.3 0.5 0.5 1.1 1.1 1.2 1.3 1.3 1.4 1.2 1.4 1.4 1.4 1.1 1.2 1.1 0.8 1.1 1.3 1.4 1.3 1.2 1.1 1.2 1.3 1.3 1.2 1.5

GFSNGP_prec_snow_147.txt.gz
Snowfall_Accumulation
0.2 0.8 6.1 4.1 0.7 0.6 1.7 0.8 1.8 6.0 5.6 7.5 12.5 13.4 15.4 12.0 10.2 8.5 7.2 5.2 6.3 7.3 5.5 6.7 7.6 5.1 5.3 5.4 4.0 5.6 5.8 4.5 3.7 4.3 5.8 3.7 2.8 3.4 4.2 3.7 3.1 2.9 2.5 2.4
0.0 0.2 2.6 2.8 0.5 0.3 0.6 1.3 2.3 3.7 3.2 5.8 4.1 0.7 0.8 5.0 6.8 5.7 5.5 4.8 1.6 1.4 2.1 0.6 0.7 0.8 1.4 0.9 1.1 0.8 1.8 1.6 2.7 0.8 2.7 3.1 1.7 1.9 1.7 1.6 2.1 3.2 3.8 2.7
0.6 0.0 3.2 5.9 7.3 4.9 2.4 2.0 2.3 2.8 3.9 5.9 1.8 0.2 0.1 0.0 0.6 1.4 2.0 1.8 1.3 0.5 0.4 0.3 0.1 0.0 0.0 0.1 0.0 0.0 0.2 0.4 0.1 0.0 0.0 0.0 0.7 1.0 0.0 0.4 0.8 5.2 6.3 6.9
2.4 2.6 6.7 7.3 4.8 5.9 8.6 5.6 6.7 6.3 6.4 4.5 2.0 0.6 0.0 0.0 0.0 0.1 0.1 0.2 0.1 0.4 0.2 0.1 0.0 0.0 0.0 0.0 0.0 0.0 0.0 0.0 0.0 0.2 0.0 0.0 0.0 0.0 0.0 0.0 0.0 0.0 0.6 0.0
4.5 4.2 4.5 1.4 0.0 0.8 2.1 2.6 1.9 3.2 2.8 1.3 0.8 0.2 0.0 0.0 0.0 0.1 0.1 0.1 0.1 0.1 0.1 0.1 0.1 0.0 0.0 0.0 0.0 0.0 0.1 0.1 0.0 0.1 0.0 0.0 0.0 0.0 0.0 0.0 0.0 0.0 0.0 0.0
2.8 3.5 3.2 1.8 0.0 0.0 0.7 5.0 2.5 0.2 1.0 0.5 0.0 0.7 0.3 0.2 0.0 0.0 0.0 0.0 0.0 0.0 0.0 3.8 4.0 4.8 6.4 0.0 0.0 0.2 0.3 0.2 0.0 0.1 0.0 0.0 0.0 0.0 0.0 0.0 0.0 0.0 0.0 0.0
1.1 3.0 1.7 0.0 0.0 0.0 3.9 7.9 0.5 0.3 1.4 0.1 0.1 0.3 0.4 0.1 0.0 0.0 0.1 0.4 0.1 0.1 0.5 1.8 3.5 5.5 8.6 10.2 9.0 4.3 3.5 2.4 0.0 0.0 0.2 0.0 0.0 0.0 0.0 0.0 0.0 0.0 0.0 0.0
3.7 3.6 3.3 0.0 0.0 0.8 2.7 0.6 0.2 0.1 0.2 0.2 0.2 0.2 0.1 0.0 0.0 0.4 0.6 1.3 1.1 0.7 0.6 1.7 2.7 6.3 8.6 9.9 10.7 11.0 8.0 8.2 3.0 0.0 1.6 0.2 0.0 0.0 0.0 0.0 0.0 0.0 0.1 0.1
1.9 4.0 1.1 0.3 0.8 1.2 0.6 0.3 0.3 0.0 0.1 0.1 0.0 0.1 0.0 0.0 0.0 1.5 3.4 4.1 2.2 2.0 1.4 1.1 1.9 3.3 5.8 8.0 8.7 10.5 7.3 9.4 4.6 6.0 2.0 2.3 0.1 0.1 0.0 0.0 0.0 0.0 0.0 0.1
1.9 1.7 0.4 0.2 0.2 0.2 0.3 0.2 0.0 0.2 0.1 0.0 0.0 0.0 0.0 0.0 0.0 0.9 3.9 3.5 2.8 2.6 2.2 1.6 1.9 1.6 1.9 2.2 3.0 4.8 5.8 6.3 8.7 6.0 8.3 9.6 3.9 5.5 1.9 2.5 0.6 0.8 0.2 0.3
6.8 4.2 2.2 0.9 1.1 1.8 0.5 0.1 0.0 0.0 0.0 0.0 0.0 0.0 0.0 0.0 0.0 0.1 1.8 2.3 3.2 2.5 2.4 2.9 2.4 1.3 1.0 0.7 1.2 1.8 2.4 2.5 3.3 5.3 7.6 8.6 12.8 16.7 16.7 17.1 5.5 6.3 7.4 4.0
14.1 9.5 5.5 3.8 3.2 2.3 1.3 0.2 0.1 0.0 0.0 0.0 0.0 0.0 0.0 0.0 0.1 0.1 0.2 0.2 0.6 1.0 0.9 0.7 0.7 0.5 0.4 0.4 0.4 0.2 1.0 1.3 2.2 2.5 3.8 5.4 8.0 10.7 13.9 18.4 20.0 24.3 19.5 23.4
6.5 8.7 6.8 5.2 3.6 2.7 2.1 1.5 0.3 0.0 0.0 0.1 0.2 0.1 0.0 0.0 0.0 0.2 0.1 0.2 0.4 0.5 0.5 0.5 0.3 0.2 0.2 0.2 0.2 0.2 0.4 0.4 2.5 2.9 3.6 5.1 5.1 6.8 9.5 20.8 24.6 28.8 29.8 29.6
3.0 3.6 4.0 4.0 3.5 2.2 1.3 1.4 0.7 0.4 0.2 0.4 0.3 0.2 0.1 0.0 0.0 0.0 0.2 0.3 0.2 0.2 0.3 0.2 0.0 0.7 0.7 0.3 0.2 0.0 0.1 4.3 10.2 14.3 14.9 15.3 15.6 18.2 18.4 18.8 18.4 19.6 19.4 18.3
1.4 0.9 1.6 1.6 1.5 1.3 0.9 0.7 0.5 0.4 0.6 1.4 1.4 1.0 0.2 0.3 0.1 0.4 0.5 0.2 0.1 0.2 0.4 0.3 0.5 1.0 1.9 3.3 3.6 5.4 7.2 8.9 9.6 9.4 8.6 7.1 6.6 7.8 7.9 8.1 9.3 9.9 8.9 7.8
0.5 0.1 0.3 0.8 1.0 0.8 0.9 0.7 0.4 1.8 1.2 1.0 0.8 0.4 0.1 0.2 0.4 0.4 0.5 0.4 0.4 1.2 1.2 1.2 2.5 5.4 5.6 5.2 5.7 5.9 6.6 6.7 5.8 5.6 5.8 5.1 4.3 3.7 3.8 3.1 3.2 3.4 4.0 4.9
0.2 0.2 0.1 0.2 0.2 0.1 0.2 0.3 0.5 0.9 0.0 0.0 0.1 0.0 0.0 0.1 0.1 0.4 1.1 1.2 1.3 2.5 3.8 4.4 8.2 8.7 8.1 7.9 7.0 7.3 6.6 6.3 4.5 3.7 3.1 2.8 2.2 2.0 1.8 2.1 1.8 1.4 1.3 0.8
1.0 0.1 0.0 0.1 1.1 0.9 0.7 0.6 0.0 0.0 0.1 0.1 0.2 0.4 0.4 0.4 1.0 2.4 2.5 2.0 2.4 4.7 6.8 8.8 8.6 7.7 7.1 7.0 4.7 4.5 3.7 3.1 2.5 2.5 1.8 1.5 1.2 1.0 0.9 1.1 0.8 1.1 1.5 0.8
0.4 1.7 2.3 1.1 0.6 0.2 0.1 0.3 0.2 0.3 1.6 2.0 2.8 4.0 5.6 6.7 7.6 9.3 9.4 8.3 8.6 8.1 11.9 9.8 7.6 5.4 4.9 4.5 2.7 1.9 2.2 2.0 1.4 1.4 1.2 0.6 0.9 0.6 1.6 1.5 1.6 1.3 1.3 1.4
0.9 1.0 1.4 2.3 3.0 2.8 3.3 5.2 5.4 7.0 8.6 7.6 7.6 8.7 9.9 12.0 11.8 11.6 9.8 9.4 9.7 9.6 8.0 6.0 4.0 2.8 2.1 1.5 1.0 1.2 1.0 1.0 1.1 0.7 1.2 0.7 1.3 1.3 1.3 2.2 2.7 2.0 1.4 1.4
3.0 4.9 5.1 6.6 8.5 10.0 10.6 11.3 9.5 10.1 12.0 10.2 8.4 9.4 9.4 10.3 9.2 7.5 6.7 5.2 7.7 5.4 3.3 2.3 1.5 1.0 0.6 0.6 0.4 0.7 1.1 1.2 1.6 1.3 2.1 2.6 2.8 2.8 2.3 1.2 1.8 2.0 1.7 1.5
6.3 6.3 7.0 6.6 5.5 7.7 8.8 8.4 6.5 7.1 7.4 7.4 7.2 7.1 6.3 7.2 6.2 5.2 4.3 3.7 3.8 1.9 1.2 0.7 0.6 0.2 0.2 0.2 0.7 1.0 1.3 1.7 1.7 1.9 1.9 2.4 2.6 2.3 1.9 1.3 1.2 1.2 1.5 1.2
6.7 5.9 5.7 5.4 4.4 5.4 5.8 5.4 5.7 4.6 5.0 5.3 5.1 5.3 4.6 4.4 3.8 3.2 2.9 1.4 0.3 0.0 0.2 0.3 0.2 0.1 0.4 0.6 0.8 1.4 1.7 2.0 2.1 2.1 1.9 1.9 1.8 1.6 1.3 1.0 0.9 0.9 1.1 1.0
5.7 5.4 5.5 5.2 3.9 2.6 3.7 5.6 4.2 3.9 3.4 3.5 3.4 3.6 2.9 2.5 1.5 0.2 0.3 0.0 0.0 0.1 0.3 0.5 0.6 0.5 0.7 1.6 1.7 1.3 1.5 1.4 1.2 1.3 1.1 0.7 1.3 1.0 1.4 1.1 1.0 0.9 0.9 0.8
5.6 5.7 5.4 4.8 3.7 4.6 4.1 4.1 2.8 2.8 2.4 2.2 1.7 0.7 0.1 0.1 0.5 0.4 0.2 0.1 0.1 0.7 1.1 0.9 0.9 0.6 1.2 1.3 1.4 1.1 1.3 1.4 1.1 1.2 1.3 1.4 1.5 1.4 1.1 1.3 1.1 0.9 1.1 0.9
5.2 4.9 4.9 4.4 3.9 3.6 3.1 2.5 2.2 1.7 1.0 0.6 0.6 0.4 0.3 0.3 0.2 0.2 0.3 0.2 0.5 0.7 1.2 1.4 0.9 0.9 1.1 1.3 1.4 1.4 1.4 1.3 1.3 1.4 1.4 1.3 1.2 1.2 1.3 1.0 1.0 1.1 1.1 1.2
4.6 4.1 3.3 2.9 2.7 2.0 1.2 0.4 0.7 0.6 0.4 0.7 0.9 0.5 0.6 0.5 0.3 0.5 0.5 1.1 1.1 1.2 1.3 1.3 1.4 1.2 1.4 1.4 1.4 1.1 1.2 1.1 0.8 1.1 1.3 1.4 1.3 1.2 1.1 1.2 1.3 1.3 1.2 1.5